Showing default

NUSAT-43 (R DIENG-KUNTZ), 56968

Orbit data source: Space-Track

NUSAT-43 (R DIENG-KUNTZ), 56968 is a payload satellite owned by URUGUS S.A. (AR) in SSO that was launched on Mon, 12 Jun 2023 UTC via an FALCON 9 launch vehicle from the Air Force Western Test Range (AFWTR). Payload-class satellites include a variety of spacecraft equipped with specific instruments for various scientific and technological missions. These include communications satellites like Starlink; space stations such as the ISS; scientific satellites like the Hubble; Earth observation satellites from companies like Planet Labs, Umbra, and HawkEye 360; GPS; miniature CubeSats for education and research; and military/defense satellites.

Loading next visibility...
Identifier
56968, 2023-084AN
Orbit
SSO
Country
Flag of UnknownUnknown / ARGN
Related business
Manufacturer
URUGUS S.A.
Mission
Operational Commercial Imaging
Bus & Motor
NEWSAT V, Unknown motor
Mass
41.5 kg wet, 38.5 kg dry
Launch date (UTC)
2023-06-12 (2 years ago)
Launch vehicle
FALCON 9
Launch site
Air Force Western Test Range (AFWTR)
Object type
Payload
Rocket body
Debris
Shape & HBR
Box, 1.0 m
Radar Cross Section
0.542 m², Medium (>0.1 m² and < 1m²)

Expand to show TLE details & history
Last TLE update: 8 hours ago

TLE from 8 hours ago
0 NUSAT-43 (R DIENG-KUNTZ)
1 56968U 23084AN  25293.94573088  .00050039  00000-0  82141-3 0  9992
2 56968  97.4317  64.1825 0006502  24.4502 335.7057 15.52250109131750
Epoch: 2025-10-20T22:41Z
TLE epoch observation values (Epoch: 2025-10-20T22:41:51.148Z)
Latitude
-0.00006°
Longitude
54.07863°
Altitude
409.268 km
Speed
7.667 km/s
True Right ascension
04h 16m 43s
True Declination
0° 00' 00"
Sunlit
Object was in full shadow at epoch
Visualization orbit readout
Latitude
Unknown
Longitude
Unknown
Altitude
Unknown
Speed
Unknown
Apparent Right ascension
Unknown
Apparent Declination
Unknown
Sunlit
N/A
Visualization observer readout
Local Sidereal Time
01:56:02
Azimuth
Unknown
Elevation
Unknown
Doppler factor
Unknown
Orbital elements
Apogee altitude
411.494 km
Perigee altitude
402.67 km
Semi-major axis
6,785.219 km
Eccentricity
0.00065
Inclination
97.4317°
RAAN
64.1825°
Arg. of periapsis
24.4502°
True anomaly
335.67502°
Mean anomaly
335.7057°
Eccentric anomaly
335.69036°
Mean motion
3.88327 °/min
Orbital period
92.71 mins
BSTAR
0.00082141
Loading maneuver chart data...
Computing Atmospheric mass density...
Loading historical data...
Loading historical data...
Loading historical data...
Loading historical data...
Loading historical data...
Loading historical data...
Loading historical data...

Documentation

Showing up to 5 results
|